Location: Unspecified
(35.6961°N, 0.0000°E)
Time: 19:15:24
(UTC+00:00)

Explorer 11/Cluster Stage 4 - Pass Details

Date: 24 May 2019
Orbit: 467 x 1260 km, 28.8° (Epoch: 24 June)

Event Time Altitude Azimuth Distance (km) Brightness Sun altitude
Rises 05:13:30 0° 257° (WSW) 2,944 8.9 3.7°
Reaches altitude 10° 05:16:14 10° 247° (WSW) 1,911 7.9 4.2°
Maximum altitude 05:20:02 30° 186° (S) 959 6.9 4.9°
Drops below altitude 10° 05:23:23 10° 123° (ESE) 1,670 8.9 5.5°
Sets 05:25:38 0° 112° (ESE) 2,506 10.0 5.9°
